#timestamp,LO_Frequency,Hit,StdDev 
1634860815.6,286047001.1,N
1634860835.4,286047000.6,N
1634860855.3,286047000.4,N
1634860875.1,286047002.8,Y
1634860895.8,286047000.2,P
1634860915.7,286047002.8,P
1634860935.5,286047002.5,N
1634860955.3,286047003.9,Y
1634860975.2,286047002.2,P
1634860995.9,286047000.2,N
1634861015.7,286047000.6,N
1634861035.6,286047001.1,N
1634861055.4,286047000.4,N
1634861075.2,286047000.3,N
1634861095.1,286046999.9,N
1634861096.0,286046999.9,N
1634861115.8,286046999.9,N
1634861135.6,286047000.4,N
1634861155.5,286047000.8,N
1634861175.3,286047000.8,N
1634861195.1,286047000.4,N
1634861215.9,286047000.9,N
1634861235.7,286047002.7,Y
1634861255.5,286046999.8,P
1634861275.4,286046999.9,N
1634861295.2,286047002.3,P
1634861315.0,286047002.5,N
1634861315.9,286047002.5,N
1634861335.8,286047000.0,N
1634861355.6,286047001.2,N
1634861375.4,286046998.6,N
1634861395.3,286047000.4,N
1634861415.1,286047000.6,N
1634861416.0,286047000.6,N
1634861435.8,286047002.3,N
1634861455.7,286047000.4,N
1634861475.5,286047002.1,N
1634861495.3,286047000.6,N
1634861515.2,286046998.2,N
1634861535.9,286046998.9,N
1634861555.7,286046999.7,N
1634861575.6,286047002.8,N
1634861595.4,286047000.7,N
1634861615.2,286047001.2,N
1634861635.1,286047000.7,N
1634861636.0,286047000.7,N
1634861655.8,286046998.5,N
1634861675.6,286046998.1,N
1634861695.5,286047000.9,N
1634861715.3,286047000.4,N
1634861735.1,286047002.0,N
1634861755.9,286047002.1,N
1634861775.7,286047001.0,N
1634861795.5,286047001.2,N
1634861815.3,286046998.6,N
1634861835.2,286046998.7,N
1634861855.0,286046999.4,N
1634861855.9,286046999.4,N
1634861875.8,286046999.2,N
1634861895.6,286046997.0,N
1634861915.4,286046996.6,N
1634861935.2,286046996.5,N
1634861955.1,286046997.7,N
1634861956.0,286046997.7,N
1634861975.8,286046997.1,N
1634861995.6,286046996.8,N
1634862015.5,286046997.2,N
1634862035.3,286046996.4,N
1634862055.1,286046995.7,N
1634862075.9,286046995.9,N
1634862095.7,286046998.0,N
1634862115.5,286046996.2,N
1634862135.4,286046995.8,N
1634862155.2,286046993.5,Y
1634862175.0,286046995.1,P
1634862176.0,286046995.1,N
1634862195.8,286046995.9,N
1634862215.6,286046996.1,N
1634862235.5,286046995.1,Y
1634862255.3,286046998.1,P
1634862275.1,286047000.4,N
1634862295.9,286047000.1,N
1634862315.7,286046999.9,N
1634862335.5,286047000.3,N
1634862355.4,286047001.2,N
1634862375.2,286046998.6,N
1634862395.0,286046998.8,N
1634862395.9,286046998.8,N
1634862415.8,286046998.2,N
1634862435.6,286046996.6,N
1634862455.4,286046999.1,N
1634862475.3,286046999.5,N
1634862495.1,286046997.1,N
1634862496.0,286046997.1,N
1634862515.8,286046996.7,N
1634862535.7,286046996.6,N
1634862555.5,286046994.9,Y
1634862575.3,286046999.0,P
1634862595.2,286046997.3,P
1634862615.9,286046998.0,N
1634862635.7,286046997.8,Y
1634862655.6,286047001.2,P
1634862675.4,286046998.2,N
1634862695.2,286047000.8,N
1634862715.1,286046998.3,N
1634862716.0,286046998.3,N
1634862735.8,286046999.4,N
1634862755.6,286046998.7,N
1634862775.5,286046996.7,N
1634862795.3,286046997.0,N
1634862815.1,286046999.1,N
1634862835.9,286046998.8,N
1634862855.7,286046999.3,N
1634862875.5,286046998.2,N
1634862895.4,286047000.7,N
1634862915.2,286047000.3,N
1634862935.0,286046998.1,N
1634862935.9,286046998.1,N
1634862955.8,286046998.1,N
1634862975.6,286047001.2,N
1634862995.4,286046999.2,N
1634863015.3,286046996.7,N
1634863035.1,286046997.0,N
1634863036.0,286046997.0,N
1634863055.8,286046994.9,Y
1634863075.7,286046999.2,P
1634863095.5,286046999.2,P
1634863115.3,286046996.5,P
1634863135.2,286046999.0,N
1634863155.9,286046997.2,N
1634863175.7,286046999.5,N
1634863195.6,286046999.6,N
1634863215.4,286046996.6,Y
1634863235.2,286046999.6,P
1634863255.1,286046996.7,P
1634863256.0,286046996.7,N
1634863275.8,286046997.1,N
1634863295.6,286046999.6,N
1634863315.5,286046998.8,N
1634863335.3,286046998.4,N
1634863355.1,286046999.1,N
1634863375.9,286046998.5,N
1634863395.7,286047000.9,N
1634863415.5,286047001.2,N
1634863435.4,286046998.1,N
1634863455.2,286046998.2,N
1634863475.0,286047001.0,N
1634863475.9,286047001.0,N
1634863495.8,286047000.8,N
1634863515.6,286046998.7,N
1634863535.4,286046996.5,N
1634863555.2,286046997.0,N
1634863575.1,286046999.0,N
1634863576.0,286046999.0,N
1634863595.8,286046997.1,N
1634863615.7,286046997.0,N
1634863635.5,286046999.6,N
1634863655.3,286046998.6,N
1634863675.1,286047000.9,N
1634863695.9,286047000.9,N
1634863715.7,286046998.8,N
1634863735.5,286046998.6,N
1634863755.4,286047001.0,N
1634863775.2,286047000.8,N
1634863795.0,286046998.6,N
1634863795.9,286046998.6,N
1634863815.8,286047000.8,N
1634863835.6,286047000.7,N
1634863855.4,286047000.8,N
1634863875.3,286047001.1,N
1634863895.1,286047000.6,N
1634863915.8,286047000.3,N
1634863935.7,286047000.8,N
1634863955.5,286046998.5,N
1634863975.3,286047000.7,N
1634863995.2,286047002.3,N
1634864015.0,286047001.6,N
1634864015.9,286047001.6,N
1634864035.7,286047001.6,N
1634864055.6,286047002.1,N
1634864075.4,286047001.5,N
1634864095.2,286047004.4,N
1634864115.1,286047005.6,Y
1634864116.0,286047005.6,P
1634864135.8,286047006.0,N
1634864155.6,286047005.3,N
1634864175.5,286047003.5,N
1634864195.3,286047001.9,N
1634864215.1,286047003.8,N
1634864235.9,286047001.4,N
1634864255.7,286047004.4,N
1634864275.5,286047001.3,N
1634864295.4,286047003.2,N
1634864315.2,286047004.0,N
1634864335.0,286047003.0,N
1634864335.9,286047003.0,N
1634864355.8,286047005.3,Y
1634864375.6,286047002.8,P
1634864395.4,286046999.7,N
